FW1991 Weather Reports


Display with metric or nautical units.
time (UTC)temp
F
wind
direction
speed
MPH
gust
MPH
rain 1hr
in
rain 24hr
in
rain mn
in
humidity
%
barometer
mb
20190216151502 39 299 3.0 10.0 0.00 0.00 0.00 83 1012.8
20190216150244 39 32 2.0 9.0 0.00 0.00 0.00 83 1012.9
20190216144649 39 338 4.0 11.0 0.00 0.00 0.00 83 1012.7
20190216143156 39 27 2.0 10.0 0.00 0.00 0.00 82 1012.3
20190216141629 39 21 3.0 10.0 0.00 0.00 0.00 83 1012.1
20190216140118 39 9 2.0 8.0 0.00 0.00 0.00 83 1011.8
20190216134614 39 18 2.0 11.0 0.00 0.00 0.00 81 1011.9
20190216133209 39 24 3.0 9.0 0.00 0.00 0.00 81 1011.5
20190216131623 40 5 3.0 11.0 0.00 0.00 0.00 80 1011.4
20190216130129 40 9 3.0 9.0 0.00 0.00 0.00 79 1011.3
20190216124712 41 342 3.0 10.0 0.00 0.00 0.00 78 1011.0
20190216123109 42 17 2.0 9.0 0.00 0.00 0.00 78 1011.2
20190216121605 42 46 4.0 10.0 0.00 0.00 0.00 76 1011.1
20190216120101 42 12 2.0 12.0 0.00 0.00 0.00 75 1011.4
20190216114614 43 5 2.0 9.0 0.00 0.00 0.00 74 1011.3
20190216113113 44 48 4.0 13.0 0.00 0.00 0.00 74 1010.9
20190216111601 45 12 5.0 10.0 0.00 0.00 0.00 71 1010.9
20190216110049 46 5 4.0 12.0 0.00 0.00 0.00 70 1011.0
20190216104543 46 20 3.0 13.0 0.00 0.00 0.00 71 1010.8
20190216103034 47 304 4.0 13.0 0.00 0.00 0.00 70 1010.8
20190216101511 47 13 3.0 12.0 0.00 0.00 0.00 69 1010.9
20190216100019 48 15 3.0 9.0 0.00 0.00 0.00 69 1010.8
20190216094506 48 61 4.0 14.0 0.00 0.00 0.00 67 1010.6
20190216093011 48 52 6.0 14.0 0.00 0.00 0.00 68 1010.4
20190216091512 48 19 3.0 8.0 0.00 0.00 0.00 68 1010.5
20190216090213 49 16 5.0 13.0 0.00 0.00 0.00 67 1010.6
20190216084651 50 28 4.0 9.0 0.00 0.00 0.00 67 1010.8
20190216083155 50 47 2.0 10.0 0.00 0.00 0.00 67 1010.8
20190216081636 51 348 2.0 9.0 0.00 0.00 0.00 67 1010.9
20190216080136 52 360 3.0 8.0 0.00 0.00 0.00 67 1010.9
20190216074628 52 26 4.0 12.0 0.00 0.00 0.00 66 1010.9
20190216073128 53 19 6.0 13.0 0.00 0.00 0.00 65 1010.7
20190216071630 54 28 3.0 11.0 0.00 0.00 0.00 66 1010.8
20190216070133 55 334 3.0 11.0 0.00 0.00 0.00 66 1010.9
20190216064618 56 343 4.0 14.0 0.00 0.00 0.00 66 1010.9
20190216063049 56 42 3.0 13.0 0.00 0.00 0.00 65 1010.8
20190216061542 58 17 5.0 14.0 0.00 0.00 0.00 65 1010.8
20190216060038 59 47 3.0 13.0 0.00 0.00 0.00 66 1010.8
20190216054523 60 14 4.0 15.0 0.00 0.00 0.00 65 1010.6
20190216053045 61 348 7.0 16.0 0.00 0.00 0.00 63 1010.6
20190216051554 62 40 3.0 13.0 0.00 0.00 0.00 65 1010.5
20190216050034 63 26 3.0 14.0 0.00 0.00 0.00 66 1010.3
20190216044522 65 44 3.0 15.0 0.00 0.00 0.00 64 1009.8
20190216043021 66 29 6.0 16.0 0.00 0.00 0.00 62 1009.9
20190216041537 67 5 5.0 13.0 0.00 0.00 0.00 63 1009.6
20190216040022 68 350 6.0 12.0 0.00 0.00 0.00 69 1009.7
20190216034531 68 11 1.0 3.0 0.00 0.00 0.00 73 1009.0
20190216033021 68 11 0.0 8.0 0.00 0.00 0.00 73 1008.6
20190216031516 68 155 0.0 1.0 0.00 0.00 0.00 72 1008.3
20190216030017 69 155 0.0 2.0 0.00 0.00 0.00 70 1008.1
20190216024516 69 155 0.0 1.0 0.00 0.00 0.00 69 1008.1
20190216023020 70 155 0.0 1.0 0.00 0.00 0.00 68 1008.0
20190216021511 70 155 0.0 3.0 0.00 0.00 0.00 67 1007.9
20190216020010 71 155 0.0 1.0 0.00 0.00 0.00 65 1007.7
20190216014512 72 155 0.0 1.0 0.00 0.00 0.00 64 1007.6
20190216013012 73 155 0.0 2.0 0.00 0.00 0.00 61 1007.4
20190216011521 74 155 0.0 4.0 0.00 0.00 0.00 60 1006.8
20190216010009 75 129 0.0 2.0 0.00 0.00 0.00 57 1006.7
20190216004537 77 127 1.0 4.0 0.00 0.00 0.00 54 1006.6
20190216003009 79 132 0.0 3.0 0.00 0.00 0.00 49 1006.5
20190216001513 81 319 0.0 2.0 0.00 0.00 0.00 41 1006.6
20190216000007 82 319 0.0 3.0 0.00 0.00 0.00 36 1006.3
20190215234505 83 304 1.0 8.0 0.00 0.00 0.00 35 1006.2
20190215233004 84 292 2.0 11.0 0.00 0.00 0.00 33 1006.3
20190215231510 85 317 5.0 13.0 0.00 0.00 0.00 32 1006.1
20190215230004 86 287 4.0 11.0 0.00 0.00 0.00 32 1006.0
20190215224503 87 300 5.0 12.0 0.00 0.00 0.00 30 1005.9
20190215223001 88 332 1.0 5.0 0.00 0.00 0.00 32 1005.8
20190215214636 88 286 2.0 9.0 0.00 0.00 0.00 30 1005.7
20190215213217 88 284 3.0 11.0 0.00 0.00 0.00 30 1005.8
20190215211753 88 262 4.0 11.0 0.00 0.00 0.00 29 1005.7
20190215210156 86 256 3.0 10.0 0.00 0.00 0.00 32 1005.8
20190215204647 86 290 4.0 8.0 0.00 0.00 0.00 34 1005.7
20190215203312 85 255 1.0 9.0 0.00 0.00 0.00 36 1005.5
20190215201607 86 208 2.0 8.0 0.00 0.00 0.00 36 1005.7
20190215200115 85 265 1.0 7.0 0.00 0.00 0.00 36 1006.2
20190215194619 85 269 3.0 11.0 0.00 0.00 0.00 34 1006.4
20190215193124 86 209 3.0 11.0 0.00 0.00 0.00 36 1006.4
20190215191614 85 170 5.0 10.0 0.00 0.00 0.00 36 1006.5
20190215190108 83 175 4.0 9.0 0.00 0.00 0.00 38 1006.7
20190215184611 83 244 1.0 11.0 0.00 0.00 0.00 39 1007.1
20190215183110 83 213 3.0 12.0 0.00 0.00 0.00 38 1007.1
20190215181547 82 184 3.0 11.0 0.00 0.00 0.00 40 1007.9
20190215180028 80 177 2.0 7.0 0.00 0.00 0.00 43 1008.0
20190215174519 78 98 3.0 8.0 0.00 0.00 0.00 52 1008.3
20190215173015 76 192 2.0 5.0 0.00 0.00 0.00 56 1008.5
20190215171519 74 219 1.0 6.0 0.00 0.00 0.00 57 1008.4
20190215170219 72 189 2.0 6.0 0.00 0.00 0.00 63 1008.3
20190215164716 70 196 1.0 7.0 0.00 0.00 0.00 65 1008.7
20190215163155 68 168 3.0 7.0 0.00 0.00 0.00 68 1008.7
20190215161637 66 229 0.0 5.0 0.00 0.00 0.00 73 1009.0
20190215160116 63 178 1.0 5.0 0.00 0.00 0.00 78 1008.9
20190215154618 60 180 1.0 5.0 0.00 0.00 0.00 83 1009.1
20190215153119 58 230 0.0 2.0 0.00 0.00 0.00 86 1009.1